Location: Newark
(55.2875°N, 3.1864°W)
Time: 00:59:58
(UTC+00:00)

ISS - Pass Details

Date: 26 January 2020
Orbit: 416 x 422 km, 51.6° (Epoch: 21 February)

Event Time Altitude Azimuth Distance (km) Brightness Sun altitude
Rises 17:21:32 0° 211° (SSW) 2,371 1.1 -6.7°
Reaches altitude 10° 17:24:08 10° 190° (S) 1,509 -0.4 -7.0°
Maximum altitude 17:26:24 17° 148° (SSE) 1,160 -1.6 -7.3°
Drops below altitude 10° 17:28:40 10° 106° (ESE) 1,512 -1.4 -7.6°
Enters shadow 17:29:24 - 98° (E) 1,730 -1.2 -7.7°
